Total_Precipitation_Accumulation
0.00 0.00 0.00 0.00 0.00 0.00 0.00 0.00 0.00 0.00 0.00 0.00 0.00 0.00 0.00 0.00 0.00 0.00 0.00 0.00 0.00 0.00 0.00 0.00 0.00 0.02 0.01 0.01 0.01 0.00 0.00 0.01 0.00 0.00 0.00 0.00 0.00 0.00 0.00 0.00 0.00 0.00 0.00
0.00 0.00 0.00 0.00 0.00 0.00 0.01 0.01 0.00 0.00 0.00 0.00 0.00 0.00 0.00 0.00 0.00 0.00 0.00 0.00 0.00 0.00 0.00 0.00 0.00 0.00 0.02 0.01 0.01 0.00 0.01 0.01 0.01 0.00 0.00 0.00 0.00 0.00 0.00 0.00 0.00 0.00 0.00
0.00 0.00 0.00 0.00 0.00 0.00 0.01 0.02 0.01 0.00 0.00 0.00 0.00 0.00 0.00 0.00 0.00 0.00 0.00 0.00 0.00 0.00 0.00 0.00 0.00 0.01 0.03 0.01 0.02 0.00 0.00 0.01 0.03 0.03 0.00 0.00 0.00 0.00 0.00 0.00 0.00 0.00 0.00
0.00 0.00 0.00 0.00 0.00 0.03 0.09 0.06 0.01 0.01 0.01 0.02 0.02 0.01 0.00 0.00 0.00 0.01 0.01 0.01 0.01 0.02 0.05 0.07 0.04 0.03 0.02 0.03 0.02 0.03 0.02 0.04 0.03 0.04 0.03 0.01 0.00 0.00 0.00 0.00 0.00 0.00 0.00
0.00 0.00 0.00 0.00 0.04 0.17 0.27 0.34 0.23 0.16 0.10 0.04 0.02 0.00 0.00 0.00 0.01 0.00 0.02 0.03 0.09 0.10 0.10 0.12 0.09 0.16 0.07 0.02 0.04 0.02 0.03 0.04 0.04 0.09 0.08 0.02 0.01 0.02 0.03 0.01 0.00 0.00 0.00
0.00 0.00 0.00 0.00 0.04 0.14 0.37 0.73 0.41 0.23 0.16 0.15 0.09 0.04 0.02 0.02 0.03 0.01 0.03 0.14 0.16 0.20 0.17 0.14 0.13 0.13 0.13 0.16 0.15 0.04 0.07 0.09 0.22 0.21 0.10 0.06 0.06 0.06 0.07 0.05 0.02 0.01 0.01
0.00 0.00 0.00 0.00 0.07 0.13 0.15 0.22 0.26 0.33 0.31 0.14 0.05 0.03 0.03 0.08 0.27 0.13 0.18 0.15 0.18 0.19 0.15 0.15 0.13 0.08 0.13 0.06 0.13 0.19 0.22 0.23 0.20 0.20 0.08 0.09 0.11 0.12 0.13 0.08 0.05 0.07 0.03
0.00 0.00 0.00 0.00 0.04 0.10 0.12 0.13 0.12 0.10 0.05 0.05 0.10 0.16 0.15 0.15 0.17 0.15 0.12 0.09 0.10 0.11 0.17 0.17 0.13 0.16 0.20 0.13 0.20 0.20 0.17 0.16 0.26 0.23 0.12 0.07 0.10 0.09 0.07 0.06 0.09 0.05 0.04
0.00 0.00 0.00 0.00 0.01 0.05 0.06 0.05 0.05 0.02 0.02 0.05 0.24 0.39 0.25 0.19 0.19 0.17 0.16 0.07 0.09 0.16 0.20 0.14 0.16 0.16 0.27 0.31 0.22 0.24 0.12 0.09 0.17 0.16 0.06 0.05 0.07 0.10 0.06 0.03 0.05 0.09 0.04
0.00 0.00 0.00 0.01 0.01 0.00 0.00 0.02 0.06 0.13 0.17 0.10 0.09 0.13 0.15 0.18 0.23 0.16 0.19 0.14 0.14 0.14 0.15 0.13 0.15 0.09 0.28 0.31 0.18 0.19 0.10 0.13 0.13 0.12 0.09 0.04 0.05 0.07 0.08 0.04 0.04 0.05 0.04
0.00 0.01 0.02 0.02 0.01 0.01 0.05 0.17 0.24 0.24 0.11 0.03 0.07 0.29 0.28 0.19 0.26 0.15 0.15 0.12 0.11 0.11 0.15 0.20 0.20 0.26 0.23 0.27 0.23 0.23 0.19 0.16 0.17 0.08 0.09 0.09 0.09 0.07 0.08 0.05 0.02 0.02 0.01
0.00 0.01 0.02 0.01 0.01 0.03 0.19 0.23 0.16 0.14 0.22 0.28 0.35 0.30 0.20 0.25 0.22 0.16 0.14 0.08 0.08 0.06 0.12 0.15 0.21 0.17 0.19 0.21 0.26 0.26 0.20 0.14 0.07 0.07 0.06 0.06 0.06 0.05 0.06 0.06 0.05 0.00 0.02
0.00 0.00 0.00 0.01 0.01 0.06 0.17 0.15 0.16 0.17 0.20 0.16 0.14 0.19 0.26 0.29 0.23 0.18 0.15 0.07 0.04 0.04 0.11 0.23 0.22 0.24 0.24 0.24 0.19 0.18 0.16 0.11 0.03 0.02 0.03 0.04 0.05 0.07 0.05 0.04 0.03 0.01 0.04
0.01 0.00 0.01 0.01 0.02 0.04 0.14 0.21 0.08 0.17 0.23 0.29 0.36 0.43 0.44 0.38 0.22 0.14 0.16 0.18 0.16 0.18 0.18 0.18 0.29 0.27 0.24 0.18 0.19 0.20 0.17 0.14 0.06 0.05 0.07 0.14 0.18 0.13 0.10 0.07 0.04 0.02 0.03
0.03 0.12 0.15 0.17 0.16 0.19 0.21 0.32 0.45 0.59 0.52 0.58 0.70 0.74 0.65 0.58 0.54 0.59 0.63 0.57 0.58 0.76 0.81 0.74 0.65 0.50 0.48 0.35 0.31 0.27 0.21 0.15 0.15 0.19 0.30 0.42 0.46 0.40 0.24 0.12 0.06 0.03 0.06
0.22 0.37 0.45 0.53 0.60 0.65 0.73 0.83 1.01 0.94 0.88 1.05 1.03 0.97 1.35 1.95 2.36 2.20 2.38 2.38 2.06 1.77 1.61 1.35 0.87 0.58 0.56 0.56 0.62 0.50 0.36 0.29 0.27 0.31 0.42 0.53 0.45 0.27 0.11 0.05 0.03 0.01 0.01
0.23 0.18 0.17 0.29 0.49 0.57 0.74 0.80 0.83 0.95 0.96 1.01 1.18 1.23 1.18 0.94 0.88 0.89 0.89 0.79 0.80 0.82 0.62 0.35 0.29 0.32 0.37 0.45 0.50 0.44 0.43 0.44 0.47 0.52 0.56 0.47 0.35 0.18 0.04 0.01 0.00 0.00 0.00
0.67 0.83 0.85 0.63 0.46 0.31 0.41 0.60 0.83 0.91 0.90 0.77 0.58 0.58 0.43 0.32 0.28 0.25 0.29 0.21 0.20 0.16 0.15 0.14 0.16 0.27 0.28 0.21 0.19 0.18 0.20 0.33 0.42 0.48 0.34 0.24 0.12 0.04 0.02 0.01 0.00 0.00 0.00
1.05 0.75 0.82 1.06 1.04 0.82 0.63 0.60 0.42 0.29 0.26 0.24 0.20 0.28 0.32 0.33 0.36 0.37 0.31 0.19 0.16 0.15 0.18 0.25 0.27 0.31 0.26 0.18 0.17 0.18 0.16 0.19 0.20 0.15 0.12 0.12 0.09 0.05 0.03 0.01 0.00 0.00 0.00
1.32 1.88 1.62 1.44 1.40 1.35 1.26 1.14 1.04 0.89 0.78 0.73 0.67 0.57 0.55 0.63 0.60 0.59 0.55 0.51 0.48 0.37 0.35 0.34 0.33 0.32 0.25 0.23 0.22 0.24 0.29 0.26 0.17 0.11 0.05 0.02 0.03 0.02 0.01 0.00 0.00 0.00 0.00
0.78 0.81 0.89 1.04 1.41 1.58 1.55 1.62 1.59 1.55 1.57 1.60 1.58 1.63 1.75 1.63 1.53 1.51 1.50 1.49 1.22 1.02 1.04 1.09 1.15 1.24 1.26 1.34 1.39 1.35 1.05 0.55 0.22 0.14 0.02 0.00 0.00 0.00 0.00 0.00 0.00 0.00 0.00
0.32 0.33 0.27 0.29 0.28 0.28 0.31 0.38 0.44 0.43 0.52 0.67 0.70 0.74 0.82 0.94 1.04 1.22 1.25 1.20 1.25 1.41 1.52 1.46 1.35 1.37 1.49 1.50 1.54 1.19 0.74 0.47 0.09 0.02 0.00 0.00 0.00 0.00 0.00 0.00 0.00 0.00 0.00
0.12 0.14 0.14 0.12 0.17 0.21 0.18 0.12 0.11 0.18 0.23 0.24 0.26 0.15 0.10 0.16 0.14 0.16 0.18 0.16 0.17 0.18 0.30 0.29 0.25 0.20 0.17 0.12 0.14 0.14 0.09 0.06 0.05 0.03 0.01 0.00 0.00 0.00 0.00 0.00 0.00 0.00 0.00
0.05 0.10 0.15 0.19 0.26 0.31 0.26 0.25 0.25 0.23 0.29 0.29 0.27 0.20 0.15 0.12 0.18 0.29 0.34 0.29 0.28 0.30 0.22 0.26 0.18 0.15 0.09 0.08 0.09 0.08 0.06 0.04 0.03 0.01 0.00 0.00 0.00 0.00 0.00 0.00 0.00 0.00 0.00
0.03 0.03 0.08 0.11 0.16 0.24 0.31 0.27 0.22 0.16 0.14 0.16 0.21 0.16 0.08 0.06 0.03 0.02 0.03 0.07 0.17 0.35 0.25 0.22 0.12 0.07 0.06 0.06 0.04 0.02 0.01 0.00 0.00 0.00 0.00 0.00 0.00 0.00 0.00 0.00 0.00 0.00 0.00
0.02 0.03 0.02 0.03 0.04 0.06 0.20 0.30 0.29 0.45 0.23 0.11 0.11 0.12 0.09 0.07 0.04 0.03 0.02 0.01 0.01 0.03 0.06 0.05 0.01 0.00 0.00 0.00 0.00 0.00 0.00 0.00 0.00 0.00 0.00 0.00 0.00 0.00 0.00 0.00 0.00 0.00 0.00